Weather History for PABA - April, 2013

Change the Weather History Date:

Sunday, April 7, 2013

  Actual Average Record
Temperature  
Mean Temperature -21 °F -  
Max Temperature -18 °F 7 °F 32 °F (2001)
Min Temperature -26 °F -5 °F -26 °F (2013)
Degree Days  
Heating Degree Days 86    
Moisture  
Dew Point -26 °F    
Average Humidity 75    
Maximum Humidity 78    
Minimum Humidity 70    
Precipitation  
Precipitation 0.00 in - - ()
Sea Level Pressure  
Sea Level Pressure 30.11 in    
Wind  
Wind Speed 14 mph (West)    
Max Wind Speed 16 mph    
Max Gust Speed -    
Visibility 8 miles    
Events Snow    
Averages and records for this station are not official NWS values.
T = Trace of Precipitation, MM = Missing Value Source: NWS Daily Summary

Daily Weather History Graph

Daily Weather History Graph

Search for Another Location

Airport or City:

Trip Planner

Search our weather history database for the weather conditions in past years. The results will help you decide how hot, cold, wet, or windy it might be!

Date:

Astronomy

Apr. 07, 2013 Rise Set
Actual Time 6:05 AM AKDT 9:09 PM AKDT
Civil Twilight 4:54 AM AKDT 10:22 PM AKDT
Nautical Twilight 2:45 AM AKDT 12:42 AM AKDT
Astronomical Twilight Sun does not set Sun does not set
Moon 5:47 AM AKDT (4/7) 5:48 PM AKDT (4/7)
Length of Visible Light 17h 28m
Length of Day
15h 03m
Waning Crescent, 7% of the Moon is Illuminated
Apr 7
Waning Crescent
Apr 10
New
Apr 18
First Quarter
Apr 25
Full
May 2
Last Quarter

Hourly Weather History & Observations

Time (AKDT) Temp. Windchill Dew Point Humidity Pressure Visibility Wind Dir Wind Speed Gust Speed Precip Events Conditions
12:01 AM -23.1 °F -48.9 °F -29.0 °F 74% 30.18 in 4.0 mi West 15.0 mph - 0.00 in Snow Light Snow
1:01 AM -24.0 °F -49.2 °F -29.0 °F 77% 30.17 in 5.0 mi West 13.8 mph - 0.00 in Snow Light Snow
2:01 AM -24.0 °F -48.2 °F -29.0 °F 77% 30.16 in 6.0 mi West 12.7 mph - 0.00 in Snow Light Snow
3:01 AM -24.0 °F -50.1 °F -29.0 °F 77% 30.15 in 4.0 mi West 15.0 mph - 0.00 in Snow Light Snow
4:01 AM -23.1 °F -47.1 °F -29.0 °F 74% 30.14 in 8.0 mi West 12.7 mph - N/A Snow Light Snow
5:01 AM -24.0 °F -47.2 °F -29.0 °F 77% 30.13 in 6.0 mi West 11.5 mph - 0.00 in Snow Light Snow
6:01 AM -26.0 °F -52.6 °F -32.1 °F 73% 30.13 in 7.0 mi West 15.0 mph - 0.00 in   Unknown
7:01 AM -25.1 °F -50.5 °F -31.0 °F 74% 30.13 in 10.0 mi West 13.8 mph - N/A   Unknown
8:01 AM -24.0 °F -50.1 °F -29.9 °F 74% 30.12 in 10.0 mi West 15.0 mph - N/A   Unknown
9:01 AM -23.1 °F -49.8 °F -29.0 °F 74% 30.12 in 9.0 mi West 16.1 mph - N/A   Unknown
10:01 AM -22.0 °F -48.4 °F -27.9 °F 74% 30.11 in 8.0 mi West 16.1 mph - N/A   Unknown
11:01 AM -20.0 °F -45.0 °F -26.0 °F 74% 30.12 in 9.0 mi WNW 15.0 mph - N/A   Unknown
12:01 PM -20.0 °F -45.0 °F -26.0 °F 74% 30.13 in 6.0 mi WNW 15.0 mph - N/A   Haze
1:01 PM -18.9 °F -43.6 °F -25.1 °F 74% 30.12 in 9.0 mi WNW 15.0 mph - N/A   Unknown
2:01 PM -18.0 °F -43.3 °F -24.0 °F 74% 30.12 in 9.0 mi WNW 16.1 mph - N/A   Unknown
3:01 PM -16.1 °F -39.1 °F -22.0 °F 74% 30.11 in 8.0 mi West 13.8 mph - N/A   Unknown
4:01 PM -16.1 °F -38.2 °F -22.0 °F 74% 30.09 in 10.0 mi WNW 12.7 mph - N/A   Unknown
5:01 PM -16.1 °F -38.2 °F -22.0 °F 74% 30.10 in 10.0 mi West 12.7 mph - N/A   Unknown
6:01 PM -16.1 °F -37.2 °F -22.0 °F 74% 30.08 in 10.0 mi West 11.5 mph - N/A   Unknown
6:32 PM -16.6 °F -38.9 °F -23.8 °F 70% 30.08 in 1.8 mi West 12.7 mph - 0.00 in Snow Light Snow
6:53 PM -18.4 °F -41.2 °F -23.8 °F 76% 30.07 in 3.0 mi West 12.7 mph - 0.00 in Snow Light Snow
7:01 PM -18.0 °F -41.6 °F -23.1 °F 78% 30.08 in 6.0 mi West 13.8 mph - 0.00 in Snow Light Snow
8:01 PM -17.0 °F -39.3 °F -23.1 °F 74% 30.07 in 9.0 mi West 12.7 mph - 0.00 in   Unknown
9:01 PM -17.0 °F -39.3 °F -23.1 °F 74% 30.07 in 10.0 mi West 12.7 mph - N/A   Unknown
10:01 PM -18.0 °F -41.6 °F -24.0 °F 74% 30.06 in 7.0 mi West 13.8 mph - 0.00 in   Unknown
11:01 PM -18.9 °F -42.8 °F -24.0 °F 78% 30.06 in 10.0 mi West 13.8 mph - N/A   Unknown